Flag for U.S.A. Weather past 2 weeks in Mesquite, Texas, U.S.A.

Now
81 °F

Sunny.


Feels Like: 83 °F
Forecast: 75 / 92 °F
Wind: 13 mph from Southwest

Location: Mesquite Metro Airport

Current Time: Jul 2, 2015 at 11:52:23 AM

Latest Report: Jul 2, 2015 at 10:50 AM


Visibility: 10 mi

Pressure: 30.02 "Hg

Humidity: 62%

Dew point: 66 °F

Location of MesquiteLocation

Historic Weather in Mesquite — Graph

°F

Mesquite temperature yesterday

Maximum temperature yesterday: 91 °F (at 2:50 PM)
Minimum temperature yesterday: 72 °F (at 6:50 AM)
Average temperature yesterday: 79 °F

Past Weeks' High & Low Weather Summary

 TemperatureHumidityPressure
High93 °F (Jun 18, 3:50 PM)100% (Jun 18, 6:50 AM)30.19 "Hg (Jun 18, 6:50 AM)
Low69 °F (Jun 28, 4:55 AM)24% (Jun 28, 5:50 PM)29.74 "Hg (Jun 17, 3:50 PM)
Average79 °F79%30.01 "Hg
* Reported Jun 17 9:50 AM — Jul 2 9:50 AM, Mesquite, Weather by CustomWeather, © 2015

Note: Actual official high and low records may vary slightly from our data, if they occured in-between our weather recording intervals... More about our weather records

Advertising

Mesquite weather history for previous 24 hours

 ConditionsComfort  
Time TempWeatherWind HumidityBarometerVisibility
9:50 AM
Thu, Jul 2
81 °FSunny.13 mph62%30.02 "Hg10 mi
8:50 AM77 °FSunny.10 mph79%30.02 "Hg10 mi
7:50 AM72 °FSunny.9 mph100%30.00 "Hg10 mi
6:50 AM72 °FClear.9 mph94%29.98 "Hg10 mi
10:55 PM
Wed, Jul 1
78 °FClear.9 mph77%29.97 "Hg10 mi
10:35 PM78 °FClear.9 mph77%29.97 "Hg10 mi
10:15 PM79 °FClear.8 mph78%29.96 "Hg10 mi
9:55 PM79 °FClear.8 mph77%29.95 "Hg10 mi
9:15 PM81 °FSunny.12 mph69%29.95 "Hg10 mi
8:55 PM82 °FSunny.12 mph66%29.95 "Hg10 mi
8:35 PM83 °FSunny.17 mph60%29.96 "Hg10 mi
8:15 PM84 °FSunny.17 mph57%29.95 "Hg10 mi
7:50 PM86 °FSunny.20 mph55%29.95 "Hg10 mi
6:50 PM90 °FSunny.14 mph49%29.95 "Hg10 mi
5:50 PM90 °FScattered clouds.17 mph52%29.95 "Hg10 mi
4:50 PM91 °FScattered clouds.12 mph49%29.96 "Hg10 mi
2:50 PM91 °FScattered clouds.13 mph49%30.00 "Hg10 mi
1:50 PM90 °FScattered clouds.13 mph52%30.01 "Hg10 mi
12:50 PM88 °FSunny.15 mph55%30.02 "Hg10 mi
11:50 AM86 °FSunny.13 mph59%30.03 "Hg10 mi
Weather by CustomWeather, © 2015

See weather overviewHow to use our weather pages